AVA0617 LLHA-HECA

Flight info

Callsign AVA0617
Flight time N/A
Altitude 23000
Route GALIM DCT ATLIT DCT RAPIV DCT BGN/N0265F240 DCT BSA DCT ELIGI DCT ARH DCT CVO
Aircraft DH8B/M-SDFGR/S

Departure

Time 2026-04-17 18:43
Airport Uri Michaeli Haifa International Airport (LLHA)

Arrival

Time N/A
Airport Cairo International Airport (HECA)
Time Latitude Longitude Altitude Speed Heading
2026-04-17 18:11 32.81110 35.04042 30 ft 0 kts 340°
2026-04-17 18:37 32.81104 35.04043 31 ft 2 kts
2026-04-17 18:38 32.81090 35.04034 27 ft 2 kts 55°
2026-04-17 18:38 32.81089 35.04033 28 ft 0 kts 56°
2026-04-17 18:39 32.81093 35.04045 32 ft 5 kts 86°
2026-04-17 18:39 32.81101 35.04164 29 ft 18 kts 86°
2026-04-17 18:39 32.81068 35.04269 28 ft 22 kts 127°
2026-04-17 18:39 32.80957 35.04374 27 ft 31 kts 155°
2026-04-17 18:40 32.80721 35.04499 25 ft 16 kts 160°
2026-04-17 18:40 32.80599 35.04540 22 ft 19 kts 188°
2026-04-17 18:40 32.80531 35.04546 23 ft 4 kts 94°
2026-04-17 18:40 32.80545 35.04573 21 ft 0 kts
2026-04-17 18:41 32.80549 35.04572 21 ft 0 kts 348°
2026-04-17 18:41 32.80716 35.04505 25 ft 52 kts 340°
2026-04-17 18:42 32.81218 35.04290 29 ft 99 kts 340°
2026-04-17 18:42 32.81941 35.03948 221 ft 114 kts 340°
2026-04-17 18:42 32.82719 35.03709 424 ft 130 kts 347°
2026-04-17 18:42 32.83815 35.03344 3 ft 184 kts 343°
2026-04-17 18:43 32.84987 35.02910 430 ft 172 kts 341°
2026-04-17 18:43 32.85872 35.02542 1413 ft 130 kts 340°
2026-04-17 18:43 32.86789 35.02132 1681 ft 140 kts 340°
2026-04-17 18:43 32.87842 35.01654 1502 ft 178 kts 340°
2026-04-17 18:44 32.89010 35.01114 1687 ft 183 kts 339°
2026-04-17 18:44 32.90197 35.00572 1971 ft 182 kts 339°
2026-04-17 18:44 32.91378 35.00052 2244 ft 181 kts 336°
2026-04-17 18:44 32.92367 34.99182 2486 ft 178 kts 303°
2026-04-17 18:45 32.92701 34.97801 2730 ft 176 kts 266°
2026-04-17 18:45 32.92236 34.96477 2975 ft 177 kts 229°
2026-04-17 18:45 32.91156 34.95794 3224 ft 181 kts 193°
2026-04-17 18:45 32.89916 34.95685 3513 ft 179 kts 186°
2026-04-17 18:46 32.88671 34.95655 3825 ft 177 kts 184°
2026-04-17 18:46 32.87447 34.95648 4123 ft 175 kts 184°
2026-04-17 18:46 32.86243 34.95647 4407 ft 174 kts 184°
2026-04-17 18:46 32.85040 34.95639 4686 ft 172 kts 184°
2026-04-17 18:47 32.83841 34.95626 4972 ft 171 kts 184°
2026-04-17 18:47 32.82651 34.95611 5257 ft 170 kts 184°
2026-04-17 18:47 32.81489 34.95596 5578 ft 168 kts 185°
2026-04-17 18:47 32.80322 34.95586 5910 ft 167 kts 185°
2026-04-17 18:48 32.79163 34.95580 6214 ft 165 kts 185°
2026-04-17 18:48 32.78020 34.95577 6497 ft 163 kts 185°
2026-04-17 18:48 32.76885 34.95571 6770 ft 162 kts 185°
2026-04-17 18:48 32.75779 34.95559 7043 ft 160 kts 185°
2026-04-17 18:49 32.74663 34.95530 7314 ft 159 kts 185°
2026-04-17 18:49 32.73555 34.95490 7598 ft 158 kts 186°
2026-04-17 18:49 32.72454 34.95445 7879 ft 157 kts 186°
2026-04-17 18:49 32.71374 34.95396 8147 ft 157 kts 186°
2026-04-17 18:50 32.70275 34.95342 8415 ft 156 kts 186°
2026-04-17 18:50 32.69209 34.95288 8661 ft 155 kts 186°
2026-04-17 18:50 32.68135 34.95229 8927 ft 154 kts 186°
2026-04-17 18:50 32.67067 34.95167 9183 ft 153 kts 186°
2026-04-17 18:51 32.65981 34.95099 9275 ft 160 kts 186°
2026-04-17 18:51 32.64854 34.95018 9397 ft 164 kts 187°
2026-04-17 18:51 32.63702 34.94931 9538 ft 167 kts 187°
2026-04-17 18:51 32.62533 34.94836 9694 ft 169 kts 187°
2026-04-17 18:52 32.61361 34.94739 9867 ft 168 kts 187°
2026-04-17 18:52 32.60210 34.94646 10081 ft 165 kts 187°
2026-04-17 18:52 32.59087 34.94557 10360 ft 159 kts 187°
2026-04-17 18:52 32.57999 34.94475 10623 ft 155 kts 187°
2026-04-17 18:53 32.56930 34.94402 10871 ft 152 kts 187°
2026-04-17 18:53 32.55878 34.94336 11112 ft 150 kts 187°
2026-04-17 18:53 32.54838 34.94293 11344 ft 149 kts 186°
2026-04-17 18:53 32.53804 34.94265 11574 ft 148 kts 186°
2026-04-17 18:54 32.52785 34.94246 11801 ft 148 kts 186°
2026-04-17 18:54 32.51691 34.94226 11703 ft 164 kts 186°
2026-04-17 18:54 32.50510 34.94196 11658 ft 174 kts 186°
2026-04-17 18:54 32.49268 34.94159 11645 ft 181 kts 186°
2026-04-17 18:55 32.48006 34.94117 11639 ft 185 kts 186°
2026-04-17 18:55 32.46701 34.94071 11648 ft 188 kts 186°
2026-04-17 18:55 32.45391 34.94023 11666 ft 190 kts 186°
2026-04-17 18:55 32.44072 34.93973 11867 ft 184 kts 186°
2026-04-17 18:56 32.42838 34.93933 12252 ft 170 kts 186°
2026-04-17 18:56 32.41683 34.93911 12568 ft 161 kts 186°
2026-04-17 18:56 32.40594 34.93904 12854 ft 155 kts 187°